Location: Newark
(3.0500°N, 36.0167°E)
Time: 15:02:47
(UTC+00:00)

A-11 Canister half - Pass Details

Date: 25 August 2019
Orbit: 1514 x 1686 km, 47.2° (Epoch: 23 October)

Event Time Altitude Azimuth Distance (km) Brightness Sun altitude
Exits shadow 02:07:18 13° 209° (SSW) 3,720 10.6 -21.6°
Drops below altitude 10° 02:09:14 10° 198° (SSW) 3,925 10.8 -21.2°
Sets 02:14:39 0° 175° (S) 4,887 11.6 -19.9°
